This is the latest recevied weather packets stored in our database for station/object KE5AKC. If no packets are shown the sender has not sent any weather packets the latest 10 day(s).
| Time | Temp. | Humidity | Pressure | Rain* | Wind** | Luminosity | Snow |
|---|---|---|---|---|---|---|---|
| 1777640598 | 17.22° C | 96% | 1012.7 hPa | 0 mm | - | 4 W/m² | - |
| 1777640293 | 17.22° C | 96% | 1012 hPa | 0.25 mm | - | 9 W/m² | - |
| 1777639990 | 17.22° C | 97% | 1012 hPa | 0.25 mm | - | 14 W/m² | - |
| 1777639687 | 17.22° C | 97% | 1011.7 hPa | 0 mm | - | 36 W/m² | - |
| 1777639385 | 17.22° C | 97% | 1011.7 hPa | 0 mm | - | 21 W/m² | - |
| 1777639079 | 17.22° C | 97% | 1011.7 hPa | 0 mm | - | 5 W/m² | - |
| 1777638776 | 17.22° C | 97% | 1011.7 hPa | 0 mm | - | 7 W/m² | - |
| 1777638466 | 17.22° C | 97% | 1012 hPa | 0 mm | - | 5 W/m² | - |
| 1777638164 | 17.22° C | 97% | 1011.7 hPa | 0 mm | - | 3 W/m² | - |
| 1777637864 | 17.22° C | 97% | 1011.3 hPa | 0 mm | - | 7 W/m² | - |
| 1777637561 | 17.22° C | 97% | 1010.7 hPa | 0 mm | - | 6 W/m² | - |
| 1777637259 | 17.22° C | 97% | 1010.7 hPa | 0 mm | - | 2 W/m² | - |
| 1777636956 | 17.22° C | 97% | 1011.3 hPa | 0 mm | - | 1 W/m² | - |
| 1777636651 | 17.22° C | 97% | 1011.3 hPa | 2.54 mm | - | 1 W/m² | - |
| 1777636348 | 17.22° C | 97% | 1011 hPa | 2.54 mm | - | 1 W/m² | - |
| 1777636047 | 17.22° C | 97% | 1010.7 hPa | 2.54 mm | - | 0 W/m² | - |
| 1777635744 | 17.22° C | 97% | 1010.7 hPa | 2.54 mm | - | 0 W/m² | - |
| 1777635441 | 17.22° C | 97% | 1010.3 hPa | 2.54 mm | - | 0 W/m² | - |
| 1777635138 | 17.22° C | 97% | 1010.3 hPa | 2.54 mm | - | 0 W/m² | - |
| 1777634834 | 17.22° C | 97% | 1010.7 hPa | 2.54 mm | - | 0 W/m² | - |
| 1777634531 | 17.22° C | 97% | 1011 hPa | 2.54 mm | - | 0 W/m² | - |
| 1777634227 | 17.22° C | 97% | 1010.7 hPa | 2.29 mm | - | 0 W/m² | - |
| 1777633924 | 17.22° C | 97% | 1010.3 hPa | 0.76 mm | - | 0 W/m² | - |
| 1777633622 | 17.22° C | 97% | 1010.3 hPa | 0.25 mm | - | 0 W/m² | - |
| 1777633320 | 17.22° C | 97% | 1010.3 hPa | 0 mm | - | 0 W/m² | - |
* Rain latest hour (hover to see other rain measurements)
** Current wind speed in m/s (hover to see current wind gust speed)